| time (UTC) | temp F | wind direction | speed MPH | gust MPH | rain 1hr in | rain 24hr in | rain mn in | humidity % | barometer mb |
| 20260507191558 | 55 | 344 | 2.0 | 8.0 | 0.00 | 0.00 | 0.00 | 46 | 1010.2 |
| 20260507191056 | 55 | 330 | 2.0 | 5.0 | 0.00 | 0.00 | 0.00 | 47 | 1010.2 |
| 20260507190556 | 54 | 302 | 3.0 | 5.0 | 0.00 | 0.00 | 0.00 | 46 | 1010.3 |
| 20260507190057 | 54 | 302 | 2.0 | 11.0 | 0.00 | 0.00 | 0.00 | 47 | 1010.2 |
| 20260507185556 | 54 | 340 | 3.0 | 11.0 | 0.00 | 0.01 | 0.00 | 48 | 1010.4 |
| 20260507185055 | 54 | 290 | 3.0 | 7.0 | 0.00 | 0.01 | 0.00 | 47 | 1010.4 |
| 20260507184554 | 55 | 323 | 3.0 | 8.0 | 0.00 | 0.01 | 0.00 | 46 | 1010.5 |
| 20260507184057 | 55 | 348 | 2.0 | 13.0 | 0.00 | 0.01 | 0.00 | 47 | 1010.4 |
| 20260507183558 | 55 | 6 | 2.0 | 13.0 | 0.00 | 0.01 | 0.00 | 47 | 1010.5 |
| 20260507183058 | 55 | 297 | 4.0 | 8.0 | 0.00 | 0.01 | 0.00 | 47 | 1010.6 |
| 20260507182556 | 55 | 320 | 3.0 | 6.0 | 0.00 | 0.01 | 0.00 | 48 | 1010.6 |
| 20260507182057 | 54 | 343 | 2.0 | 6.0 | 0.00 | 0.01 | 0.00 | 45 | 1010.7 |
| 20260507181554 | 54 | 310 | 3.0 | 23.0 | 0.00 | 0.01 | 0.00 | 45 | 1010.8 |
| 20260507181055 | 55 | 12 | 4.0 | 23.0 | 0.00 | 0.01 | 0.00 | 46 | 1010.8 |
| 20260507180555 | 54 | 217 | 5.0 | 9.0 | 0.00 | 0.01 | 0.00 | 48 | 1010.7 |
| 20260507180104 | 54 | 193 | 4.0 | 9.0 | 0.00 | 0.01 | 0.00 | 49 | 1010.8 |
| 20260507175556 | 53 | 288 | 4.0 | 9.0 | 0.00 | 0.01 | 0.00 | 53 | 1010.8 |
| 20260507175054 | 53 | 247 | 1.0 | 7.0 | 0.00 | 0.01 | 0.00 | 51 | 1010.8 |
| 20260507174622 | 53 | 277 | 2.0 | 9.0 | 0.00 | 0.01 | 0.00 | 50 | 1010.8 |
| 20260507174056 | 53 | 279 | 4.0 | 9.0 | 0.00 | 0.01 | 0.00 | 54 | 1010.8 |
| 20260507173556 | 53 | 268 | 3.0 | 10.0 | 0.00 | 0.01 | 0.00 | 54 | 1011.0 |
| 20260507173055 | 53 | 259 | 5.0 | 10.0 | 0.00 | 0.01 | 0.00 | 55 | 1011.0 |
| 20260507172556 | 53 | 0 | 0.0 | 8.0 | 0.00 | 0.01 | 0.00 | 52 | 1011.1 |
| 20260507172057 | 53 | 293 | 1.0 | 8.0 | 0.00 | 0.01 | 0.00 | 53 | 1011.1 |
| 20260507171610 | 52 | 293 | 5.0 | 8.0 | 0.00 | 0.01 | 0.00 | 53 | 1011.2 |
| 20260507171056 | 52 | 287 | 3.0 | 12.0 | 0.00 | 0.01 | 0.00 | 56 | 1011.2 |
| 20260507170556 | 52 | 281 | 3.0 | 12.0 | 0.00 | 0.01 | 0.00 | 60 | 1011.3 |
| 20260507170057 | 51 | 252 | 3.0 | 8.0 | 0.00 | 0.01 | 0.00 | 60 | 1011.3 |
| 20260507165559 | 51 | 214 | 3.0 | 8.0 | 0.00 | 0.01 | 0.00 | 61 | 1011.3 |
| 20260507165054 | 50 | 236 | 3.0 | 9.0 | 0.00 | 0.01 | 0.00 | 60 | 1011.4 |
| 20260507164556 | 51 | 298 | 4.0 | 9.0 | 0.00 | 0.01 | 0.00 | 55 | 1011.4 |
| 20260507164054 | 51 | 301 | 3.0 | 8.0 | 0.00 | 0.01 | 0.00 | 54 | 1011.4 |
| 20260507163555 | 51 | 287 | 3.0 | 10.0 | 0.00 | 0.01 | 0.00 | 57 | 1011.5 |
| 20260507163054 | 51 | 283 | 5.0 | 10.0 | 0.00 | 0.01 | 0.00 | 61 | 1011.5 |
| 20260507162557 | 51 | 293 | 2.0 | 8.0 | 0.00 | 0.01 | 0.00 | 60 | 1011.6 |
| 20260507162059 | 51 | 302 | 4.0 | 8.0 | 0.00 | 0.01 | 0.00 | 57 | 1011.7 |
| 20260507161558 | 51 | 222 | 1.0 | 7.0 | 0.00 | 0.01 | 0.00 | 59 | 1011.7 |
| 20260507161056 | 50 | 274 | 3.0 | 7.0 | 0.00 | 0.01 | 0.00 | 55 | 1011.8 |
| 20260507160554 | 50 | 263 | 3.0 | 6.0 | 0.00 | 0.01 | 0.00 | 58 | 1011.7 |
| 20260507160117 | 50 | 163 | 3.0 | 6.0 | 0.00 | 0.01 | 0.00 | 58 | 1011.9 |
| 20260507155558 | 50 | 289 | 3.0 | 7.0 | 0.00 | 0.01 | 0.00 | 58 | 1011.9 |
| 20260507155100 | 50 | 277 | 2.0 | 8.0 | 0.00 | 0.01 | 0.00 | 60 | 1012.0 |
| 20260507154554 | 50 | 212 | 2.0 | 8.0 | 0.00 | 0.01 | 0.00 | 56 | 1012.0 |
| 20260507154053 | 49 | 0 | 1.0 | 5.0 | 0.00 | 0.01 | 0.00 | 55 | 1012.0 |
| 20260507153559 | 49 | 194 | 2.0 | 6.0 | 0.00 | 0.01 | 0.00 | 56 | 1012.1 |
| 20260507153056 | 49 | 243 | 2.0 | 8.0 | 0.00 | 0.01 | 0.00 | 58 | 1012.2 |
| 20260507152600 | 49 | 219 | 1.0 | 8.0 | 0.00 | 0.01 | 0.00 | 57 | 1012.2 |
| 20260507152059 | 48 | 284 | 3.0 | 7.0 | 0.00 | 0.01 | 0.00 | 60 | 1012.2 |
| 20260507151559 | 48 | 283 | 1.0 | 6.0 | 0.00 | 0.01 | 0.00 | 57 | 1012.3 |
| 20260507151056 | 48 | 0 | 0.0 | 5.0 | 0.00 | 0.01 | 0.00 | 58 | 1012.3 |
| 20260507150555 | 47 | 290 | 1.0 | 5.0 | 0.00 | 0.01 | 0.00 | 59 | 1012.2 |
| 20260507150057 | 47 | 278 | 2.0 | 5.0 | 0.00 | 0.01 | 0.00 | 58 | 1012.3 |
| 20260507145555 | 46 | 0 | 2.0 | 4.0 | 0.00 | 0.01 | 0.00 | 59 | 1012.4 |
| 20260507145055 | 46 | 0 | 0.0 | 5.0 | 0.00 | 0.01 | 0.00 | 59 | 1012.5 |
| 20260507144557 | 45 | 336 | 0.0 | 5.0 | 0.00 | 0.01 | 0.00 | 63 | 1012.6 |
| 20260507144054 | 45 | 293 | 3.0 | 5.0 | 0.00 | 0.01 | 0.00 | 58 | 1012.5 |
| 20260507143554 | 44 | 319 | 1.0 | 5.0 | 0.00 | 0.01 | 0.00 | 59 | 1012.7 |
| 20260507143116 | 44 | 328 | 1.0 | 4.0 | 0.00 | 0.01 | 0.00 | 60 | 1012.6 |
| 20260507142558 | 44 | 328 | 0.0 | 5.0 | 0.00 | 0.01 | 0.00 | 62 | 1012.7 |
| 20260507142054 | 44 | 337 | 1.0 | 5.0 | 0.00 | 0.01 | 0.00 | 59 | 1012.7 |
| 20260507141626 | 44 | 338 | 2.0 | 5.0 | 0.00 | 0.01 | 0.00 | 59 | 1012.9 |
| 20260507141054 | 44 | 339 | 1.0 | 4.0 | 0.00 | 0.01 | 0.00 | 62 | 1012.8 |
| 20260507140554 | 45 | 0 | 1.0 | 4.0 | 0.00 | 0.01 | 0.00 | 61 | 1012.7 |
| 20260507140111 | 45 | 338 | 1.0 | 6.0 | 0.00 | 0.01 | 0.00 | 62 | 1012.7 |
| 20260507135554 | 45 | 331 | 2.0 | 6.0 | 0.00 | 0.04 | 0.00 | 62 | 1012.7 |
| 20260507135057 | 44 | 297 | 2.0 | 6.0 | 0.00 | 0.04 | 0.00 | 61 | 1012.7 |
| 20260507134600 | 44 | 348 | 0.0 | 3.0 | 0.00 | 0.04 | 0.00 | 63 | 1012.8 |
| 20260507134054 | 44 | 340 | 1.0 | 8.0 | 0.00 | 0.04 | 0.00 | 61 | 1012.7 |
| 20260507133555 | 44 | 344 | 2.0 | 8.0 | 0.00 | 0.04 | 0.00 | 61 | 1012.9 |
| 20260507133105 | 44 | 318 | 1.0 | 5.0 | 0.00 | 0.04 | 0.00 | 65 | 1013.0 |
| 20260507132554 | 44 | 0 | 1.0 | 9.0 | 0.00 | 0.04 | 0.00 | 67 | 1012.7 |
| 20260507132054 | 44 | 0 | 2.0 | 9.0 | 0.00 | 0.04 | 0.00 | 66 | 1012.8 |
| 20260507131619 | 44 | 345 | 2.0 | 9.0 | 0.00 | 0.04 | 0.00 | 64 | 1012.6 |
| 20260507131054 | 44 | 341 | 2.0 | 6.0 | 0.00 | 0.04 | 0.00 | 63 | 1012.6 |
| 20260507130554 | 44 | 321 | 2.0 | 6.0 | 0.00 | 0.04 | 0.00 | 62 | 1012.5 |
| 20260507130106 | 44 | 298 | 3.0 | 6.0 | 0.00 | 0.04 | 0.00 | 64 | 1012.5 |
| 20260507125554 | 44 | 354 | 2.0 | 7.0 | 0.00 | 0.12 | 0.00 | 66 | 1012.4 |
| 20260507125054 | 44 | 334 | 3.0 | 8.0 | 0.00 | 0.12 | 0.00 | 67 | 1012.4 |
| 20260507124603 | 43 | 321 | 3.0 | 8.0 | 0.00 | 0.12 | 0.00 | 65 | 1012.4 |
| 20260507124054 | 43 | 339 | 2.0 | 7.0 | 0.00 | 0.12 | 0.00 | 65 | 1012.4 |
| 20260507123554 | 43 | 318 | 2.0 | 7.0 | 0.00 | 0.12 | 0.00 | 66 | 1012.5 |
| 20260507123103 | 43 | 325 | 3.0 | 7.0 | 0.00 | 0.12 | 0.00 | 70 | 1012.6 |
| 20260507122553 | 43 | 302 | 3.0 | 6.0 | 0.00 | 0.12 | 0.00 | 74 | 1012.7 |
| 20260507122057 | 42 | 296 | 3.0 | 6.0 | 0.00 | 0.12 | 0.00 | 75 | 1012.8 |
| 20260507121557 | 42 | 302 | 2.0 | 6.0 | 0.00 | 0.12 | 0.00 | 77 | 1012.5 |
| 20260507121055 | 42 | 281 | 2.0 | 5.0 | 0.00 | 0.12 | 0.00 | 78 | 1012.5 |
| 20260507120555 | 41 | 274 | 3.0 | 5.0 | 0.00 | 0.12 | 0.00 | 78 | 1012.5 |
| 20260507120055 | 41 | 304 | 2.0 | 3.0 | 0.00 | 0.12 | 0.00 | 82 | 1012.5 |
| 20260507115557 | 40 | 288 | 0.0 | 2.0 | 0.00 | 0.18 | 0.00 | 83 | 1012.4 |
| 20260507115057 | 40 | 286 | 0.0 | 2.0 | 0.00 | 0.18 | 0.00 | 84 | 1012.4 |
| 20260507114555 | 40 | 310 | 0.0 | 2.0 | 0.00 | 0.18 | 0.00 | 84 | 1012.3 |
| 20260507114056 | 40 | 0 | 0.0 | 3.0 | 0.00 | 0.18 | 0.00 | 85 | 1012.4 |
| 20260507113559 | 40 | 0 | 1.0 | 3.0 | 0.00 | 0.18 | 0.00 | 85 | 1012.4 |
| 20260507113128 | 40 | 251 | 1.0 | 3.0 | 0.00 | 0.18 | 0.00 | 86 | 1012.3 |
| 20260507112554 | 39 | 297 | 2.0 | 4.0 | 0.00 | 0.18 | 0.00 | 87 | 1012.3 |
| 20260507112059 | 39 | 269 | 2.0 | 4.0 | 0.00 | 0.18 | 0.00 | 88 | 1012.4 |
| 20260507111555 | 38 | 282 | 2.0 | 4.0 | 0.00 | 0.18 | 0.00 | 89 | 1012.5 |
| 20260507111056 | 38 | 273 | 1.0 | 2.0 | 0.00 | 0.18 | 0.00 | 90 | 1012.4 |
| 20260507110556 | 37 | 283 | 0.0 | 2.0 | 0.00 | 0.18 | 0.00 | 91 | 1012.3 |
| 20260507110054 | 36 | 0 | 0.0 | 2.0 | 0.00 | 0.18 | 0.00 | 91 | 1012.3 |
| 20260507105557 | 36 | 0 | 0.0 | 0.0 | 0.00 | 0.30 | 0.00 | 90 | 1012.2 |
| 20260507105055 | 35 | 0 | 0.0 | 0.0 | 0.00 | 0.30 | 0.00 | 89 | 1012.3 |
| 20260507104616 | 35 | 0 | 0.0 | 0.0 | 0.00 | 0.30 | 0.00 | 89 | 1012.2 |
| 20260507104057 | 34 | 0 | 0.0 | 0.0 | 0.00 | 0.30 | 0.00 | 89 | 1012.0 |
| 20260507103557 | 34 | 0 | 0.0 | 0.0 | 0.00 | 0.30 | 0.00 | 88 | 1012.0 |
| 20260507103059 | 33 | 0 | 0.0 | 0.0 | 0.00 | 0.30 | 0.00 | 87 | 1012.0 |
| 20260507102556 | 33 | 0 | 0.0 | 0.0 | 0.00 | 0.30 | 0.00 | 86 | 1011.9 |
| 20260507102057 | 33 | 0 | 0.0 | 0.0 | 0.00 | 0.30 | 0.00 | 86 | 1011.8 |
| 20260507101556 | 34 | 0 | 0.0 | 0.0 | 0.00 | 0.30 | 0.00 | 85 | 1011.9 |
| 20260507101057 | 34 | 0 | 0.0 | 0.0 | 0.00 | 0.30 | 0.00 | 85 | 1011.7 |
| 20260507100556 | 34 | 0 | 0.0 | 0.0 | 0.00 | 0.30 | 0.00 | 85 | 1011.7 |
| 20260507100101 | 34 | 0 | 0.0 | 0.0 | 0.00 | 0.30 | 0.00 | 84 | 1011.8 |
| 20260507095557 | 35 | 0 | 0.0 | 0.0 | 0.00 | 0.34 | 0.00 | 84 | 1011.9 |
| 20260507095056 | 35 | 0 | 0.0 | 0.0 | 0.00 | 0.34 | 0.00 | 84 | 1011.9 |
| 20260507094611 | 35 | 0 | 0.0 | 0.0 | 0.00 | 0.34 | 0.00 | 85 | 1011.9 |
| 20260507094057 | 35 | 0 | 0.0 | 0.0 | 0.00 | 0.34 | 0.00 | 86 | 1011.9 |
| 20260507093557 | 35 | 0 | 0.0 | 0.0 | 0.00 | 0.34 | 0.00 | 86 | 1012.1 |
| 20260507093056 | 35 | 0 | 0.0 | 0.0 | 0.00 | 0.34 | 0.00 | 84 | 1012.1 |
| 20260507092557 | 35 | 0 | 0.0 | 0.0 | 0.00 | 0.34 | 0.00 | 83 | 1012.0 |
| 20260507092058 | 35 | 0 | 0.0 | 0.0 | 0.00 | 0.34 | 0.00 | 83 | 1012.1 |
| 20260507091600 | 36 | 0 | 0.0 | 0.0 | 0.00 | 0.34 | 0.00 | 82 | 1012.0 |
| 20260507091059 | 36 | 0 | 0.0 | 0.0 | 0.00 | 0.34 | 0.00 | 82 | 1012.0 |
| 20260507090601 | 36 | 0 | 0.0 | 0.0 | 0.00 | 0.34 | 0.00 | 80 | 1011.8 |
| 20260507090100 | 37 | 0 | 0.0 | 0.0 | 0.00 | 0.34 | 0.00 | 79 | 1011.7 |
| 20260507085554 | 37 | 0 | 0.0 | 0.0 | 0.00 | 0.40 | 0.00 | 79 | 1011.9 |
| 20260507085055 | 37 | 0 | 0.0 | 0.0 | 0.00 | 0.40 | 0.00 | 78 | 1012.0 |
| 20260507084602 | 38 | 0 | 0.0 | 0.0 | 0.00 | 0.40 | 0.00 | 77 | 1012.0 |
| 20260507084054 | 38 | 0 | 0.0 | 0.0 | 0.00 | 0.40 | 0.00 | 76 | 1011.9 |
| 20260507083557 | 38 | 0 | 0.0 | 0.0 | 0.00 | 0.40 | 0.00 | 75 | 1012.0 |
| 20260507083100 | 39 | 0 | 0.0 | 2.0 | 0.00 | 0.40 | 0.00 | 74 | 1012.0 |
| 20260507082557 | 39 | 0 | 0.0 | 2.0 | 0.00 | 0.40 | 0.00 | 72 | 1012.0 |
| 20260507082056 | 39 | 0 | 0.0 | 3.0 | 0.00 | 0.40 | 0.00 | 72 | 1012.2 |
| 20260507081554 | 39 | 298 | 1.0 | 6.0 | 0.00 | 0.40 | 0.00 | 72 | 1012.2 |
| 20260507081100 | 40 | 296 | 2.0 | 6.0 | 0.00 | 0.40 | 0.00 | 72 | 1012.2 |
| 20260507080553 | 40 | 297 | 1.0 | 3.0 | 0.00 | 0.40 | 0.00 | 72 | 1012.3 |
| 20260507075557 | 40 | 311 | 2.0 | 5.0 | 0.00 | 0.48 | 0.00 | 72 | 1012.2 |
| 20260507075054 | 40 | 300 | 2.0 | 5.0 | 0.00 | 0.48 | 0.00 | 73 | 1012.2 |
| 20260507074600 | 40 | 306 | 0.0 | 4.0 | 0.00 | 0.48 | 0.00 | 73 | 1012.1 |
| 20260507074053 | 40 | 343 | 1.0 | 4.0 | 0.00 | 0.48 | 0.00 | 74 | 1012.0 |
| 20260507073554 | 40 | 297 | 1.0 | 4.0 | 0.00 | 0.48 | 0.00 | 74 | 1012.0 |
| 20260507073058 | 41 | 329 | 0.0 | 4.0 | 0.00 | 0.48 | 0.00 | 74 | 1012.0 |
| 20260507072555 | 41 | 292 | 1.0 | 4.0 | 0.00 | 0.48 | 0.00 | 74 | 1012.1 |
| 20260507072058 | 41 | 293 | 2.0 | 4.0 | 0.00 | 0.48 | 0.00 | 75 | 1012.1 |
| 20260507071556 | 41 | 355 | 0.0 | 1.0 | 0.00 | 0.48 | 0.00 | 75 | 1012.0 |
| 20260507071054 | 41 | 290 | 0.0 | 3.0 | 0.00 | 0.48 | 0.00 | 75 | 1011.9 |
| 20260507070555 | 41 | 284 | 1.0 | 3.0 | 0.00 | 0.48 | 0.00 | 75 | 1011.8 |
| 20260507070106 | 41 | 295 | 0.0 | 2.0 | 0.00 | 0.48 | 0.00 | 75 | 1011.9 |
| 20260507065554 | 41 | 0 | 0.0 | 4.0 | 0.00 | 0.52 | 0.00 | 76 | 1011.8 |
| 20260507065056 | 41 | 289 | 1.0 | 4.0 | 0.00 | 0.52 | 0.00 | 75 | 1011.7 |
| 20260507064602 | 42 | 280 | 2.0 | 4.0 | 0.00 | 0.52 | 0.00 | 74 | 1011.7 |
| 20260507064055 | 42 | 309 | 1.0 | 2.0 | 0.00 | 0.52 | 0.00 | 74 | 1011.7 |
| 20260507063554 | 42 | 284 | 1.0 | 2.0 | 0.00 | 0.52 | 0.00 | 74 | 1011.8 |
| 20260507063057 | 42 | 292 | 0.0 | 2.0 | 0.00 | 0.52 | 0.00 | 75 | 1011.9 |
| 20260507062557 | 42 | 297 | 1.0 | 2.0 | 0.00 | 0.52 | 0.00 | 75 | 1011.9 |
| 20260507062057 | 42 | 0 | 0.0 | 2.0 | 0.00 | 0.52 | 0.00 | 75 | 1011.9 |
| 20260507061557 | 42 | 295 | 0.0 | 2.0 | 0.00 | 0.52 | 0.00 | 75 | 1012.0 |
| 20260507061057 | 42 | 305 | 0.0 | 3.0 | 0.00 | 0.52 | 0.00 | 74 | 1012.0 |
| 20260507060553 | 42 | 0 | 1.0 | 3.0 | 0.00 | 0.52 | 0.00 | 75 | 1012.0 |
| 20260507060058 | 42 | 0 | 0.0 | 3.0 | 0.00 | 0.52 | 0.00 | 74 | 1012.0 |
| 20260507055555 | 42 | 284 | 0.0 | 3.0 | 0.00 | 0.55 | 0.00 | 75 | 1012.0 |
| 20260507055055 | 42 | 282 | 1.0 | 3.0 | 0.00 | 0.55 | 0.00 | 75 | 1012.0 |
| 20260507054555 | 42 | 268 | 0.0 | 2.0 | 0.00 | 0.55 | 0.00 | 74 | 1012.0 |
| 20260507054059 | 42 | 282 | 0.0 | 5.0 | 0.00 | 0.55 | 0.00 | 75 | 1012.1 |
| 20260507053554 | 42 | 300 | 1.0 | 5.0 | 0.00 | 0.55 | 0.00 | 76 | 1012.2 |
| 20260507053057 | 42 | 297 | 1.0 | 6.0 | 0.00 | 0.55 | 0.00 | 76 | 1012.2 |
| 20260507052554 | 42 | 298 | 1.0 | 6.0 | 0.00 | 0.55 | 0.00 | 77 | 1012.1 |
| 20260507052054 | 42 | 293 | 1.0 | 6.0 | 0.00 | 0.55 | 0.00 | 80 | 1012.2 |
| 20260507051601 | 42 | 305 | 2.0 | 6.0 | 0.00 | 0.55 | 0.00 | 80 | 1012.2 |
| 20260507051053 | 42 | 321 | 2.0 | 7.0 | 0.00 | 0.55 | 0.00 | 84 | 1012.2 |
| 20260507050553 | 42 | 310 | 3.0 | 8.0 | 0.00 | 0.55 | 0.00 | 85 | 1012.1 |
| 20260507050109 | 42 | 313 | 2.0 | 8.0 | 0.00 | 0.55 | 0.00 | 86 | 1012.0 |
| 20260507045554 | 42 | 298 | 4.0 | 8.0 | 0.00 | 0.58 | 0.00 | 87 | 1012.1 |
| 20260507045056 | 42 | 300 | 3.0 | 7.0 | 0.00 | 0.58 | 0.00 | 88 | 1012.0 |
| 20260507044559 | 42 | 288 | 2.0 | 7.0 | 0.00 | 0.58 | 0.00 | 88 | 1012.1 |
| 20260507044059 | 42 | 302 | 2.0 | 7.0 | 0.00 | 0.58 | 0.00 | 89 | 1012.1 |
| 20260507043554 | 42 | 321 | 3.0 | 6.0 | 0.00 | 0.58 | 0.00 | 89 | 1012.0 |
| 20260507043110 | 42 | 308 | 0.0 | 6.0 | 0.00 | 0.58 | 0.00 | 89 | 1012.0 |
| 20260507042555 | 42 | 274 | 2.0 | 5.0 | 0.00 | 0.58 | 0.00 | 89 | 1011.9 |
| 20260507042054 | 42 | 295 | 1.0 | 6.0 | 0.00 | 0.58 | 0.00 | 89 | 1011.9 |
| 20260507041558 | 42 | 314 | 3.0 | 6.0 | 0.00 | 0.58 | 0.00 | 88 | 1012.0 |
| 20260507041054 | 43 | 297 | 2.0 | 6.0 | 0.00 | 0.58 | 0.00 | 89 | 1011.9 |
| 20260507040556 | 43 | 299 | 1.0 | 5.0 | 0.00 | 0.58 | 0.00 | 88 | 1011.7 |
| 20260507040112 | 43 | 293 | 2.0 | 5.0 | 0.00 | 0.58 | 0.00 | 89 | 1011.8 |
| 20260507035558 | 43 | 0 | 2.0 | 5.0 | 0.00 | 0.67 | 0.58 | 89 | 1011.8 |
| 20260507035054 | 43 | 299 | 1.0 | 3.0 | 0.00 | 0.67 | 0.58 | 88 | 1011.8 |
| 20260507034604 | 43 | 304 | 1.0 | 4.0 | 0.00 | 0.67 | 0.58 | 88 | 1011.7 |
| 20260507034055 | 43 | 294 | 1.0 | 4.0 | 0.00 | 0.67 | 0.58 | 88 | 1011.6 |
| 20260507033555 | 43 | 291 | 3.0 | 4.0 | 0.00 | 0.67 | 0.58 | 88 | 1011.7 |
| 20260507033107 | 43 | 290 | 2.0 | 6.0 | 0.00 | 0.67 | 0.58 | 88 | 1011.7 |
| 20260507032555 | 43 | 288 | 0.0 | 6.0 | 0.00 | 0.67 | 0.58 | 88 | 1011.7 |
| 20260507032054 | 43 | 0 | 2.0 | 6.0 | 0.00 | 0.67 | 0.58 | 87 | 1011.6 |
| 20260507031559 | 43 | 300 | 1.0 | 4.0 | 0.00 | 0.67 | 0.58 | 88 | 1011.7 |
| 20260507031055 | 43 | 339 | 1.0 | 5.0 | 0.00 | 0.67 | 0.58 | 88 | 1011.8 |
| 20260507030555 | 43 | 320 | 1.0 | 5.0 | 0.00 | 0.67 | 0.58 | 88 | 1011.8 |
| 20260507025558 | 44 | 300 | 1.0 | 3.0 | 0.00 | 0.77 | 0.58 | 88 | 1011.5 |
| 20260507025054 | 44 | 305 | 0.0 | 4.0 | 0.00 | 0.77 | 0.58 | 89 | 1011.5 |
| 20260507024608 | 44 | 328 | 1.0 | 4.0 | 0.00 | 0.77 | 0.58 | 89 | 1011.6 |
| 20260507024104 | 44 | 327 | 1.0 | 3.0 | 0.00 | 0.77 | 0.58 | 89 | 1011.5 |
| 20260507023557 | 44 | 317 | 0.0 | 2.0 | 0.00 | 0.77 | 0.58 | 89 | 1011.5 |
| 20260507023109 | 44 | 0 | 1.0 | 2.0 | 0.00 | 0.77 | 0.58 | 89 | 1011.5 |
| 20260507022554 | 44 | 329 | 0.0 | 2.0 | 0.00 | 0.77 | 0.58 | 90 | 1011.7 |
| 20260507022054 | 44 | 307 | 0.0 | 3.0 | 0.00 | 0.77 | 0.58 | 90 | 1011.8 |
| 20260507021611 | 45 | 307 | 0.0 | 3.0 | 0.00 | 0.77 | 0.58 | 90 | 1011.8 |
| 20260507021054 | 45 | 0 | 0.0 | 0.0 | 0.00 | 0.77 | 0.58 | 89 | 1011.6 |
| 20260507020557 | 45 | 0 | 0.0 | 0.0 | 0.00 | 0.77 | 0.58 | 89 | 1011.6 |
| 20260507015557 | 45 | 0 | 0.0 | 1.0 | 0.00 | 0.92 | 0.58 | 89 | 1011.5 |
| 20260507015055 | 45 | 0 | 0.0 | 1.0 | 0.00 | 0.92 | 0.58 | 89 | 1011.7 |
| 20260507014600 | 45 | 277 | 0.0 | 1.0 | 0.00 | 0.92 | 0.58 | 89 | 1011.8 |
| 20260507014055 | 45 | 0 | 0.0 | 0.0 | 0.00 | 0.92 | 0.58 | 89 | 1011.7 |
| 20260507013554 | 45 | 0 | 0.0 | 0.0 | 0.00 | 0.92 | 0.58 | 89 | 1011.6 |
| 20260507013057 | 45 | 0 | 0.0 | 0.0 | 0.00 | 0.92 | 0.58 | 89 | 1011.5 |
| 20260507012559 | 45 | 0 | 0.0 | 0.0 | 0.00 | 0.92 | 0.58 | 90 | 1011.7 |
| 20260507012054 | 45 | 0 | 0.0 | 0.0 | 0.00 | 0.92 | 0.58 | 90 | 1011.6 |
| 20260507011559 | 44 | 0 | 0.0 | 0.0 | 0.00 | 0.92 | 0.58 | 89 | 1011.4 |
| 20260507011054 | 44 | 0 | 0.0 | 0.0 | 0.00 | 0.92 | 0.58 | 89 | 1011.3 |
| 20260507010554 | 44 | 0 | 0.0 | 0.0 | 0.00 | 0.92 | 0.58 | 89 | 1011.2 |
| 20260507010053 | 45 | 0 | 0.0 | 0.0 | 0.00 | 0.92 | 0.58 | 88 | 1011.2 |
| 20260507005554 | 45 | 0 | 0.0 | 0.0 | 0.00 | 1.02 | 0.58 | 88 | 1011.1 |
| 20260507005054 | 45 | 0 | 0.0 | 0.0 | 0.00 | 1.02 | 0.58 | 88 | 1010.8 |
| 20260507004554 | 45 | 0 | 0.0 | 0.0 | 0.00 | 1.02 | 0.58 | 88 | 1011.1 |
| 20260507004054 | 45 | 0 | 0.0 | 0.0 | 0.00 | 1.02 | 0.58 | 87 | 1011.1 |
| 20260507003555 | 45 | 0 | 0.0 | 0.0 | 0.00 | 1.02 | 0.58 | 87 | 1010.9 |
| 20260507003055 | 45 | 0 | 0.0 | 0.0 | 0.00 | 1.02 | 0.58 | 87 | 1010.8 |
| 20260507002555 | 45 | 0 | 0.0 | 0.0 | 0.00 | 1.02 | 0.58 | 87 | 1010.9 |
| 20260507002057 | 45 | 0 | 0.0 | 0.0 | 0.00 | 1.02 | 0.58 | 86 | 1010.8 |
| 20260507001603 | 45 | 0 | 0.0 | 0.0 | 0.00 | 1.02 | 0.58 | 86 | 1010.8 |
| 20260507001056 | 45 | 0 | 0.0 | 0.0 | 0.00 | 1.02 | 0.58 | 86 | 1010.9 |
| 20260507000557 | 45 | 0 | 0.0 | 1.0 | 0.00 | 1.02 | 0.58 | 86 | 1010.8 |
| 20260507000058 | 45 | 0 | 0.0 | 1.0 | 0.00 | 1.02 | 0.58 | 86 | 1010.7 |
| 20260506235557 | 45 | 272 | 0.0 | 2.0 | 0.00 | 1.03 | 0.58 | 86 | 1010.7 |
| 20260506235054 | 45 | 0 | 0.0 | 2.0 | 0.00 | 1.03 | 0.58 | 86 | 1010.6 |
| 20260506234624 | 45 | 257 | 0.0 | 2.0 | 0.00 | 1.03 | 0.58 | 85 | 1010.6 |
| 20260506234054 | 45 | 281 | 0.0 | 2.0 | 0.00 | 1.03 | 0.58 | 85 | 1010.6 |
| 20260506233554 | 45 | 0 | 0.0 | 2.0 | 0.00 | 1.03 | 0.58 | 85 | 1010.4 |
| 20260506233055 | 45 | 0 | 1.0 | 3.0 | 0.00 | 1.03 | 0.58 | 85 | 1010.3 |
| 20260506232559 | 45 | 288 | 0.0 | 4.0 | 0.00 | 1.03 | 0.58 | 85 | 1010.4 |
| 20260506232056 | 45 | 305 | 2.0 | 4.0 | 0.00 | 1.03 | 0.58 | 84 | 1010.4 |
| 20260506231556 | 45 | 280 | 0.0 | 2.0 | 0.00 | 1.03 | 0.58 | 85 | 1010.1 |
| 20260506231059 | 45 | 0 | 0.0 | 4.0 | 0.00 | 1.03 | 0.58 | 85 | 1009.9 |
| 20260506230600 | 45 | 281 | 1.0 | 4.0 | 0.00 | 1.03 | 0.58 | 85 | 1010.1 |
| 20260506230059 | 45 | 289 | 2.0 | 4.0 | 0.00 | 1.03 | 0.58 | 85 | 1010.2 |
| 20260506225600 | 45 | 290 | 0.0 | 2.0 | 0.00 | 1.03 | 0.58 | 85 | 1010.1 |
| 20260506225055 | 45 | 0 | 0.0 | 0.0 | 0.00 | 1.03 | 0.58 | 85 | 1009.7 |
| 20260506224556 | 45 | 0 | 0.0 | 0.0 | 0.00 | 1.03 | 0.58 | 84 | 1009.8 |
| 20260506224054 | 45 | 0 | 0.0 | 0.0 | 0.00 | 1.03 | 0.58 | 84 | 1009.8 |
| 20260506223600 | 45 | 0 | 0.0 | 2.0 | 0.00 | 1.03 | 0.58 | 85 | 1009.9 |
| 20260506223101 | 45 | 0 | 0.0 | 2.0 | 0.00 | 1.03 | 0.58 | 84 | 1009.9 |
| 20260506222557 | 45 | 294 | 0.0 | 2.0 | 0.00 | 1.03 | 0.58 | 84 | 1010.1 |
| 20260506222057 | 45 | 0 | 0.0 | 1.0 | 0.00 | 1.03 | 0.58 | 84 | 1010.2 |
| 20260506221556 | 45 | 0 | 0.0 | 2.0 | 0.00 | 1.03 | 0.58 | 83 | 1010.2 |
| 20260506221056 | 45 | 0 | 0.0 | 2.0 | 0.00 | 1.03 | 0.58 | 83 | 1010.2 |
| 20260506220556 | 45 | 304 | 0.0 | 2.0 | 0.00 | 1.03 | 0.58 | 83 | 1010.2 |
| 20260506220055 | 46 | 0 | 0.0 | 4.0 | 0.00 | 1.03 | 0.58 | 84 | 1010.0 |
| 20260506215557 | 46 | 299 | 1.0 | 5.0 | 0.00 | 1.03 | 0.58 | 84 | 1010.1 |
| 20260506215101 | 46 | 294 | 1.0 | 5.0 | 0.00 | 1.03 | 0.58 | 83 | 1010.1 |
| 20260506214557 | 46 | 289 | 2.0 | 5.0 | 0.00 | 1.03 | 0.58 | 83 | 1010.1 |
| 20260506214057 | 46 | 293 | 1.0 | 5.0 | 0.00 | 1.03 | 0.58 | 84 | 1010.1 |
| 20260506213557 | 46 | 0 | 1.0 | 5.0 | 0.00 | 1.03 | 0.58 | 85 | 1010.0 |
| 20260506213058 | 46 | 307 | 1.0 | 3.0 | 0.00 | 1.03 | 0.58 | 84 | 1010.0 |
| 20260506212557 | 46 | 349 | 1.0 | 6.0 | 0.00 | 1.03 | 0.58 | 84 | 1009.9 |
| 20260506212055 | 46 | 296 | 0.0 | 6.0 | 0.00 | 1.03 | 0.58 | 85 | 1009.8 |
| 20260506211554 | 46 | 299 | 1.0 | 6.0 | 0.00 | 1.03 | 0.58 | 84 | 1009.8 |
| 20260506211057 | 46 | 329 | 2.0 | 6.0 | 0.00 | 1.03 | 0.58 | 86 | 1009.8 |
| 20260506210554 | 46 | 276 | 4.0 | 6.0 | 0.00 | 1.03 | 0.58 | 85 | 1009.8 |
| 20260506210057 | 46 | 285 | 1.0 | 5.0 | 0.00 | 1.03 | 0.58 | 86 | 1009.9 |
| 20260506205559 | 46 | 304 | 1.0 | 7.0 | 0.00 | 1.03 | 0.58 | 86 | 1009.9 |
| 20260506205056 | 46 | 311 | 2.0 | 7.0 | 0.00 | 1.03 | 0.58 | 86 | 1009.9 |
| 20260506204600 | 46 | 323 | 1.0 | 4.0 | 0.00 | 1.03 | 0.58 | 87 | 1009.7 |
| 20260506204056 | 46 | 0 | 1.0 | 4.0 | 0.00 | 1.03 | 0.58 | 87 | 1009.6 |
| 20260506203556 | 46 | 276 | 1.0 | 3.0 | 0.00 | 1.03 | 0.58 | 88 | 1009.6 |
| 20260506203056 | 46 | 318 | 0.0 | 3.0 | 0.00 | 1.03 | 0.58 | 88 | 1009.4 |
| 20260506202600 | 46 | 347 | 1.0 | 3.0 | 0.00 | 1.03 | 0.58 | 88 | 1009.5 |
| 20260506202059 | 46 | 307 | 2.0 | 4.0 | 0.00 | 1.03 | 0.58 | 87 | 1009.3 |
| 20260506201558 | 46 | 8 | 0.0 | 4.0 | 0.00 | 1.03 | 0.58 | 89 | 1009.3 |
| 20260506201057 | 46 | 344 | 1.0 | 2.0 | 0.00 | 1.03 | 0.58 | 89 | 1009.2 |
| 20260506200601 | 45 | 331 | 0.0 | 2.0 | 0.00 | 1.03 | 0.58 | 90 | 1009.3 |
| 20260506200109 | 45 | 349 | 1.0 | 6.0 | 0.00 | 1.03 | 0.58 | 90 | 1009.3 |
| 20260506195600 | 45 | 0 | 2.0 | 6.0 | 0.00 | 1.03 | 0.58 | 89 | 1009.3 |
| 20260506195057 | 45 | 318 | 0.0 | 4.0 | 0.01 | 1.03 | 0.58 | 91 | 1009.4 |
| 20260506194623 | 45 | 0 | 2.0 | 4.0 | 0.01 | 1.03 | 0.58 | 90 | 1009.4 |
| 20260506194056 | 45 | 340 | 1.0 | 4.0 | 0.01 | 1.03 | 0.58 | 91 | 1009.5 |
| 20260506193600 | 45 | 335 | 1.0 | 4.0 | 0.01 | 1.03 | 0.58 | 91 | 1009.5 |
| 20260506193055 | 45 | 349 | 2.0 | 5.0 | 0.01 | 1.03 | 0.58 | 91 | 1009.5 |
| 20260506192557 | 45 | 295 | 2.0 | 5.0 | 0.01 | 1.03 | 0.58 | 91 | 1009.5 |
| 20260506192057 | 45 | 347 | 1.0 | 5.0 | 0.01 | 1.03 | 0.58 | 92 | 1009.5 |